Location: Karcze
(52.0945°N, 22.4786°E)
Time: 17:37:22
(UTC+00:00)

A-11 Canister half - Pass Details

Date: 06 August 2021
Orbit: 1515 x 1685 km, 47.2° (Epoch: 20 September)

Event Time Altitude Azimuth Distance (km) Brightness Sun altitude
Rises 21:11:09 0° 287° (WNW) 4,902 12.2 -19.0°
Reaches altitude 10° 21:15:12 10° 273° (W) 3,930 11.4 -19.2°
Maximum altitude 21:22:16 22° 228° (SW) 3,086 10.4 -19.6°
Enters shadow 21:26:12 17° 200° (SSW) 3,376 10.3 -19.8°
Drops below altitude 10° 21:29:21 10° 183° (S) 3,940 - -20.0°
Sets 21:33:28 0° 169° (S) 4,918 - -20.1°
